Regional Weather Roundup
Issued by NWS

Home | Current Version | Previous Version | Graphics & Text | Print | Product List | Glossary On
Versions: 1 2 3 4 5 6 7 8 9 10 11 12 13 14 15 16 17 18 19 20 21 22 23 24 25 26 27 28 29 30 31 32 33 34 35 36 37 38 39 40 41 42 43 44 45 46 47 48 49 50
000
ASUS45 KCYS 291110
RWRWY

WYOMING REGIONAL WEATHER ROUNDUP
NATIONAL WEATHER SERVICE CHEYENNE WY
500 AM MDT SAT APR 29 2017

NOTE:  "FAIR" INDICATES FEW OR NO CLOUDS BELOW 12,000 FEET
WITH NO SIGNIFICANT WEATHER AND/OR OBSTRUCTIONS TO VISIBILITY.

WYZ001-291200-
YELLOWSTONE NATIONAL PARK

CITY           SKY/WX    TMP DP  RH WIND       PRES   REMARKS
LK YELLOWSTONE   N/A     17  15  92 CALM      30.17R
W YELLOWSTONE  NOT AVBL

$$
WYZ002>013-054>058-071-098>099-291200-
NORTHERN WYOMING

CITY           SKY/WX    TMP DP  RH WIND       PRES   REMARKS
JACKSON        FAIR      28  23  80 N10       30.15R WCI  19
CODY           FAIR      34  28  79 CALM      30.21R
GREYBULL       CLOUDY    35  31  85 CALM      30.21R
WORLAND        FAIR      31  31 100 S9        30.22R WCI  23
SHERIDAN       FAIR      27  20  75 CALM      30.22R
BUFFALO        FAIR      30  17  58 W9        30.21R WCI  22
GILLETTE       FAIR      13  12  96 S3        30.21S
HULETT         FAIR      30  25  80 MISG      30.22F
NEWCASTLE      FAIR      28  23  80 NE7       30.21S WCI  21

$$
WYZ014>020-022>026-101>103-291200-
CENTRAL WYOMING

CITY           SKY/WX    TMP DP  RH WIND       PRES   REMARKS
BIG PINEY      FAIR      17  14  88 W6        30.15R WCI   9
PINEDALE       PTSUNNY   23  19  86 NW6       30.16R WCI  16
DUBOIS         CLOUDY    23  23 100 SE7       30.16R WCI  15
LANDER         CLOUDY    27  24  89 W5        30.19R WCI  22
RIVERTON       CLOUDY    26  25  96 NW9       30.20R WCI  17
CASPER         FOG       25  24  96 N9        30.17S VSB 1/2 WCI  15
DOUGLAS        MOCLDY    25  23  92 CALM      30.18S

$$
WYZ021-027>030-104>119-291200-
SOUTHERN WYOMING

CITY           SKY/WX    TMP DP  RH WIND       PRES   REMARKS
EVANSTON       CLOUDY    26  21  81 NE16      30.11S WCI  14
FORT BRIDGER   CLOUDY    25  25 100 N5        30.16S WCI  19
ROCK SPRINGS   CLOUDY    27  19  72 NE20      30.11R WCI  13
DIXON            N/A     29  19  68 N6        30.03R WCI  22
RAWLINS        CLOUDY    26  19  74 NE16      30.09R WCI  14
SARATOGA       CLOUDY    27  21  80 CALM      30.06R
LARAMIE        FLURRIES  23  18  81 E13       30.07R WCI  11
CHEYENNE       CLOUDY    26  24  92 N9        30.10R WCI  17
TORRINGTON     CLOUDY    31  27  85 NE9       30.16R WCI  23
PINE BLUFFS    CLOUDY    30  30 100 N10       30.12S WCI  21

$$



USA.gov is the U.S. government's official web portal to all federal, state and local government web resources and services.